Weather History for 94592 - October, 2013

Change the Weather History Date:

Saturday, October 26, 2013

  Actual Average Record
Temperature  
Mean Temperature 68 °F -  
Max Temperature 78 °F - - ()
Min Temperature 59 °F - - ()
Cooling Degree Days 4    
Growing Degree Days 18 (Base 50)    
Moisture  
Dew Point 62 °F    
Average Humidity 73    
Maximum Humidity 94    
Minimum Humidity 49    
Precipitation  
Precipitation 0.01 in - - ()
Sea Level Pressure  
Sea Level Pressure 30.09 in    
Wind  
Wind Speed 7 mph ()    
Max Wind Speed 17 mph    
Max Gust Speed -    
Visibility 6.2 miles    
Events      
T = Trace of Precipitation, MM = Missing Value Source: Averaged Metar Reports

Daily Weather History Graph

Daily Weather History Graph

Search for Another Location

Airport or City:

Trip Planner

Search our weather history database for the weather conditions in past years. The results will help you decide how hot, cold, wet, or windy it might be!

Date:

Astronomy

Oct. 26, 2013 Rise Set
Actual Time 4:59 AM AEST 6:01 PM AEST
Civil Twilight 4:34 AM AEST 6:25 PM AEST
Nautical Twilight 4:05 AM AEST 6:54 PM AEST
Astronomical Twilight 3:36 AM AEST 7:24 PM AEST
Moon 11:59 PM AEST (10/26) 10:23 AM AEST (10/26)
Length of Visible Light 13h 50m
Length of Day
13h 02m
Waning Gibbous, 58% of the Moon is Illuminated
Oct 26
Waning Gibbous
Oct 27
Last Quarter
Nov 3
New
Nov 10
First Quarter
Nov 18
Full

Hourly Weather History & Observations

Time (AEST) Temp. Dew Point Humidity Pressure Visibility Wind Dir Wind Speed Gust Speed Precip Events Conditions
12:00 AM 65 °F 58 °F 70% 30.16 in - SW 5.8 mph - -   Overcast
12:00 AM 64.4 °F 57.2 °F 77% 30.15 in 6.2 mi SW 5.8 mph - N/A   Overcast
12:30 AM 64.4 °F 57.2 °F 77% 30.15 in 6.2 mi WSW 4.6 mph - N/A   Overcast
1:00 AM 62.6 °F 57.2 °F 82% 30.12 in 6.2 mi West 4.6 mph - N/A   Overcast
1:30 AM 62.6 °F 57.2 °F 82% 30.12 in 6.2 mi SSW 3.5 mph - N/A   Mostly Cloudy
2:00 AM 62.6 °F 57.2 °F 82% 30.12 in 6.2 mi SSW 1.2 mph - N/A   Overcast
2:30 AM 62.6 °F 59.0 °F 88% 30.12 in 6.2 mi SW 3.5 mph - N/A   Overcast
3:00 AM 62 °F 57 °F 80% 30.12 in - Calm Calm - -   Overcast
3:00 AM 62.6 °F 57.2 °F 82% 30.12 in 6.2 mi Calm Calm - N/A   Overcast
3:30 AM 60.8 °F 57.2 °F 88% 30.12 in 6.2 mi SW 4.6 mph - N/A   Overcast
4:00 AM 60.8 °F 57.2 °F 88% 30.12 in 6.2 mi Calm Calm - N/A   Overcast
4:30 AM 60.8 °F 55.4 °F 82% 30.12 in 6.2 mi Calm Calm - N/A   Unknown
5:00 AM 59.0 °F 57.2 °F 94% 30.12 in 6.2 mi SW 4.6 mph - N/A   Unknown
5:30 AM 60.8 °F 57.2 °F 88% 30.12 in 6.2 mi SSW 2.3 mph - N/A   Unknown
6:00 AM 62 °F 59 °F 86% 30.15 in - Calm Calm - -  
6:00 AM 62.6 °F 59.0 °F 88% 30.12 in 6.2 mi Calm Calm - N/A   Unknown
6:30 AM 64.4 °F 59.0 °F 83% 30.15 in 6.2 mi Calm Calm - N/A   Unknown
7:00 AM 69.8 °F 60.8 °F 73% 30.15 in 6.2 mi West 4.6 mph - N/A   Unknown
7:30 AM 71.6 °F 59.0 °F 64% 30.15 in 6.2 mi NNW 6.9 mph - N/A   Unknown
8:00 AM 73.4 °F 60.8 °F 65% 30.15 in 6.2 mi North 9.2 mph - N/A   Unknown
8:30 AM 73.4 °F 59.0 °F 61% 30.15 in 6.2 mi North 9.2 mph - N/A   Unknown
9:00 AM 75 °F 59 °F 49% 30.16 in - North 10.4 mph - -  
9:00 AM 75.2 °F 59.0 °F 57% 30.15 in 6.2 mi North 10.4 mph - N/A   Unknown
9:30 AM 75.2 °F 60.8 °F 61% 30.15 in 6.2 mi North 11.5 mph - N/A   Unknown
10:00 AM 75.2 °F 59.0 °F 57% 30.12 in 6.2 mi NNE 11.5 mph - N/A   Unknown
10:30 AM 75.2 °F 60.8 °F 61% 30.12 in 6.2 mi NNE 12.7 mph - N/A   Unknown
11:00 AM 77.0 °F 62.6 °F 61% 30.09 in 6.2 mi NNE 15.0 mph - N/A   Unknown
11:30 AM 77.0 °F 60.8 °F 57% 30.09 in 6.2 mi NNE 16.1 mph - N/A   Unknown
12:00 PM 77 °F 62 °F 50% 30.08 in - NNE 16.1 mph - -  
12:00 PM 77.0 °F 62.6 °F 61% 30.06 in 6.2 mi NNE 16.1 mph - N/A   Scattered Clouds
12:30 PM 78.8 °F 64.4 °F 61% 30.06 in 6.2 mi NNE 16.1 mph - N/A   Scattered Clouds
1:00 PM 77.0 °F 62.6 °F 61% 30.04 in 6.2 mi NNE 17.3 mph - N/A   Unknown
1:30 PM 77.0 °F 62.6 °F 61% 30.04 in 6.2 mi NNE 16.1 mph - N/A   Unknown
2:00 PM 78.8 °F 62.6 °F 57% 30.01 in 6.2 mi NNE 16.1 mph - N/A   Unknown
2:30 PM 77.0 °F 64.4 °F 65% 30.01 in 6.2 mi NNE 16.1 mph - N/A   Unknown
3:00 PM 77 °F 65 °F 57% 30.01 in - NNE 15.0 mph - -  
3:00 PM 77.0 °F 64.4 °F 65% 30.01 in 6.2 mi North 15.0 mph - N/A   Unknown
3:30 PM 77.0 °F 64.4 °F 65% 30.01 in 6.2 mi North 13.8 mph - N/A   Unknown
4:00 PM 77.0 °F 64.4 °F 65% 30.01 in 6.2 mi North 13.8 mph - N/A   Unknown
4:30 PM 75.2 °F 64.4 °F 69% 30.01 in 6.2 mi North 13.8 mph - N/A   Unknown
5:00 PM 75.2 °F 64.4 °F 69% 30.01 in 6.2 mi North 12.7 mph - N/A   Unknown
5:30 PM 73.4 °F 64.4 °F 73% 30.01 in 6.2 mi North 12.7 mph - N/A   Unknown
6:00 PM 72 °F 65 °F 74% 30.04 in - North 10.4 mph - -  
6:00 PM 73.4 °F 66.2 °F 78% 30.04 in 6.2 mi North 10.4 mph - N/A   Unknown
6:30 PM 71.6 °F 66.2 °F 83% 30.04 in 6.2 mi North 10.4 mph - N/A   Unknown
7:00 PM 71.6 °F 64.4 °F 78% 30.06 in 6.2 mi North 11.5 mph - N/A   Unknown
7:30 PM 71.6 °F 66.2 °F 83% 30.06 in 6.2 mi North 12.7 mph - N/A   Unknown
8:00 PM 71.6 °F 66.2 °F 83% 30.09 in 6.2 mi North 10.4 mph - N/A   Scattered Clouds
8:30 PM 71.6 °F 64.4 °F 78% 30.09 in 6.2 mi North 11.5 mph - N/A   Mostly Cloudy
9:00 PM 71 °F 65 °F 74% 30.11 in - NNW 9.2 mph - -  
9:00 PM 71.6 °F 64.4 °F 78% 30.09 in 6.2 mi NNW 9.2 mph - N/A   Scattered Clouds
9:30 PM 69.8 °F 64.4 °F 83% 30.09 in 6.2 mi NNW 4.6 mph - N/A   Overcast
10:00 PM 71.6 °F 64.4 °F 78% 30.12 in 6.2 mi NW 3.5 mph - N/A   Overcast
10:30 PM 71.6 °F 64.4 °F 78% 30.09 in 6.2 mi NNW 8.1 mph - N/A   Mostly Cloudy
11:00 PM 69.8 °F 64.4 °F 83% 30.09 in 6.2 mi West 4.6 mph - N/A   Scattered Clouds
11:05 PM 69.8 °F 64.4 °F 83% 30.09 in 3.7 mi WSW 5.8 mph - N/A   Scattered Clouds
11:23 PM 69.8 °F 64.4 °F 83% 30.12 in 6.2 mi SSW 5.8 mph - N/A   Mostly Cloudy
11:30 PM 69.8 °F 64.4 °F 83% 30.12 in 6.2 mi South 5.8 mph - N/A   Mostly Cloudy